Regional Weather Roundup
Issued by NWS

Home | Current Version | Previous Version | Graphics & Text | Print | Product List | Glossary On
Versions: 1 2 3 4 5 6 7 8 9 10 11 12 13 14 15 16 17 18 19 20 21 22 23 24 25 26 27 28 29 30 31 32 33 34 35 36 37 38 39 40 41 42 43 44 45 46 47 48 49 50
000
ASUS43 KDTX 272310
RWRMI
MICHIGAN HOURLY REGIONAL WEATHER ROUNDUP
NATIONAL WEATHER SERVICE DETROIT/PONTIAC MI
700 PM EDT WED MAY 27 2015

NOTE: "FAIR" INDICATES FEW OR NO CLOUDS BELOW 12,000 FEET WITH NO
SIGNIFICANT WEATHER AND/OR OBSTRUCTION TO VISIBILITY.

MIZ047>049-052>055-059>063-066>070-074>076-081>083-280000-
SOUTHEAST LOWER MICHIGAN

CITY           SKY/WX    TMP DP  RH WIND       PRES   REMARKS
ADRIAN         PTSUNNY   73  58  59 W9        30.02R
ALMA           MOSUNNY   70  58  65 SW9G16    29.97R
ANN ARBOR      PTSUNNY   73  58  59 W15       30.00R
BAD AXE        PTSUNNY   71  56  60 W15G21    29.93R
CARO           PTSUNNY   73  59  60 W16       29.94R
DETROIT CITY   CLOUDY    73  60  63 SW8       29.97S
DETROIT        CLOUDY    74  64  71 S13       29.99S
FLINT          PTSUNNY   74  56  53 W18G26    29.96R
GROSSE ILE     CLOUDY    70  64  83 SW8       29.98S
HILLSDALE      PTSUNNY   72  62  71 W7        30.02S
HOWELL         PTSUNNY   72  58  60 W12       29.99R

CITY           SKY/WX    TMP DP  RH WIND       PRES   REMARKS
JACKSON        PTSUNNY   71  60  68 W9        30.01R
LAMBERTVILLE   CLOUDY    70  63  78 SW5       30.02S
LANSING        MOSUNNY   71  56  58 W15       29.99R
LAPEER         FAIR      74  54  50 W10G21    29.95R
MASON          MOSUNNY   70  56  60 W13       30.00R
MONROE         CLOUDY    70  64  83 SW8       29.99S
MT. CLEMENS    PTSUNNY   73  62  68 SW7       29.94F
PONTIAC        PTSUNNY   70  62  76 SW10      29.96S
PORT HOPE        N/A     72  57  59 W7        29.90S
PORT HURON     CLOUDY    68  64  88 S7        29.95F
TRI CITIES     PTSUNNY   72  57  59 W15       29.95R
MIDLAND        CLOUDY    73  56  54 W15G23    29.94R
TROY           CLOUDY    76  58  54 W16G23    29.99R
SAGINAW HB     PTSUNNY   72  55  56 SW14      29.94R
$$
MIZ043>046-050>051-056>058-064>065-071>073-077>080-280000-
SOUTHWEST LOWER MICHIGAN

CITY           SKY/WX    TMP DP  RH WIND       PRES   REMARKS
BATTLE CREEK   PTSUNNY   71  57  61 W10G20    30.02R
BENTON HARBOR  MOSUNNY   65  58  78 NW10      30.03R
BIG RAPIDS     MOSUNNY   68  54  60 W8        29.98R
COLDWATER      CLOUDY    71  58  64 NW9       30.02R
FREMONT        FAIR      69  56  63 W7        29.99S
HOLLAND        PTSUNNY   61  56  83 NW13G24   30.04R
GRAND RAPIDS   MOSUNNY   69  57  65 W14       30.00R
IONIA          FAIR      71  57  63 W12       29.98S
KALAMAZOO      PTSUNNY   72  58  61 W10       30.02R
LUDINGTON      SUNNY     61  54  77 W3        30.01R
MARSHALL       MOSUNNY   72  57  60 W15       30.01R
MOUNT PLEASANT MOSUNNY   71  56  60 W13       29.96R
MUSKEGON       MOSUNNY   65  55  70 W7        30.02R
SOUTH HAVEN    PTSUNNY   63  56  79 N5        30.04R
$$
MIZ016>042-280000-
NORTHERN LOWER MICHIGAN

CITY           SKY/WX    TMP DP  RH WIND       PRES   REMARKS
ALPENA         LGT RAIN  65  55  70 NW14G21   29.94R
BEAVER ISLAND  PTSUNNY   58  52  79 SW7       29.95R
BELLAIRE       MOSUNNY   65  55  68 CALM      29.97R
CADILLAC       MOSUNNY   67  53  59 NW7       29.98R
CHARLEVOIX     MOSUNNY   62  55  78 W10       29.98S
FRANKFORT      SUNNY     61  51  69 W5        29.98R
GAYLORD        SUNNY     64  56  75 W12       29.96R
GRAYLING       SUNNY     66  54  63 W5        29.98S
HARBOR SPRINGS MOSUNNY   55  51  88 SW5       29.96R
HOUGHTON LAKE  MOSUNNY   69  53  56 NW13      29.97R
MANISTEE       MOSUNNY   64  52  63 W13       30.00R
OSCODA         PTSUNNY   73  55  54 W13G23    29.90R
PELLSTON       PTSUNNY   66  56  70 W7        29.95R
ROGERS CITY    CLOUDY    64  55  74 NW13G18   29.94R
TRAVERSE CITY  MOSUNNY   69  55  60 W5        29.95R
$$
MIZ007>008-015-280000-
EASTERN UPPER MICHIGAN

CITY           SKY/WX    TMP DP  RH WIND       PRES   REMARKS
KINROSS        CLOUDY    55  55 100 NW6       29.93R
MACKINAC ISLAN CLOUDY    53  53 100 W6        29.95R
NEWBERRY       PTSUNNY   65  58  79 SW3       29.93R
S. S. MARIE    CLOUDY    51  48  89 NW7       29.93R
MUNISING         N/A     61  54  77 CALM      29.90R
$$
MIZ004>006-011>014-085-280000-
CENTRAL UPPER MICHIGAN

CITY           SKY/WX    TMP DP  RH WIND       PRES   REMARKS
MANISTIQUE     MOSUNNY   58  52  79 SW10G18   29.93R
ESCANABA       PTSUNNY   57  54  88 SW5       29.90R
MENOMINEE      PTSUNNY   57  50  77 SE9       29.95R THUNDER
SAWYER-GWINN   MOSUNNY   75  59  57 E9        29.89R
$$
MIZ001>003-009>011-084-280000-
WESTERN UPPER MICHIGAN

CITY           SKY/WX    TMP DP  RH WIND       PRES   REMARKS
IRON MOUNTAIN  PTSUNNY   76  57  51 SW7       29.89S
HOUGHTON       LGT RAIN  68  54  60 W14       29.90R
COPPER HARBOR    N/A     65  53  65 VRB3      29.88F
IRONWOOD       PTSUNNY   75  57  53 W9        29.90R
$$

ABBREVIATIONS USED IN REMARKS
   TC - TEMPERATURE IN CELSIUS
  WCI - WIND CHILL INDEX
   HX - HEAT INDEX
  VSB - VISIBILITY



USA.gov is the U.S. government's official web portal to all federal, state and local government web resources and services.